Back to catalog

STARLINK-36314

AliveCommunicationsSSO
NORAD 68741·PAYLOAD·🇺🇸 United States

Launched Apr 15, 2026 from Vandenberg Space Force Base

Loading…

Next Passes (next 24 hours)

TLE

FreshSource: CelesTrak SupGP

Epoch: Sep 15, 2026, 03:01 UTC

1 68741C 26082P   26258.12618056  .00014179  00000+0  44004-3 0  2580
2 68741  97.2850 120.3067 0001876  98.5127  90.7188 15.33439739    13

Track STARLINK-36314 in real time with AllMySat

Download on the App Store